Regional Weather Roundup
Issued by NWS Green Bay, WI

Home | Current Version | Previous Version | Text Only | Print | Product List | Glossary On
Versions: 1 2 3 4 5 6 7 8 9 10 11 12 13 14 15 16 17 18 19 20 21 22 23 24 25 26 27 28 29 30 31 32 33 34 35 36 37 38 39 40 41 42 43 44 45 46 47 48 49 50
000
ASUS43 KGRB 250810
RWRGRB

NORTH-CENTRAL AND NORTHEAST WISCONSIN REGIONAL WEATHER ROUNDUP
NATIONAL WEATHER SERVICE GREEN BAY WI
300 AM CDT FRI JUL 25 2014

WIZ005-009-010>012-018-019-250900-
NORTH CENTRAL WISCONSIN

CITY           SKY/WX    TMP DP  RH WIND       PRES   REMARKS
IRONWOOD       NOT AVBL
MANITOWISH WTR CLOUDY    60  56  89 S3        29.94F
ARBOR VITAE    CLOUDY    62  55  79 S3        29.95F
EAGLE RIVER    CLOUDY    57  55  93 CALM      29.96F
LAND O LAKES   CLOUDY    56  55  96 CALM      29.97F
RHINELANDER    CLOUDY    61  54  77 SW3       29.98F
PHILLIPS       PTCLDY    62  56  81 S5        29.93F
ANTIGO         CLOUDY    58  56  92 S6        29.98F
TOMAHAWK       CLOUDY    57  55  90 CALM      29.96F
MERRILL        CLOUDY    57  56  95 CALM      29.96F
$$

WIZ013-073-250900-
NORTHEAST WISCONSIN

CITY           SKY/WX    TMP DP  RH WIND       PRES   REMARKS
IRON MOUNTAIN  MOCLDY    60  54  80 E3        29.96F
MARINETTE      CLOUDY    63  48  59 SW7       29.97F
OCONTO         CLOUDY    60  47  62 CALM      29.98F
$$

WIZ017-030-035>037-045-250900-
CENTRAL WISCONSIN

CITY           SKY/WX    TMP DP  RH WIND       PRES   REMARKS
MEDFORD        MOCLDY    62  58  86 S6        29.94F
WAUSAU         CLOUDY    65  58  78 S6        29.95F
MOSINEE        CLOUDY    61  59  94 S7        29.97F
MARSHFIELD     PTCLDY    62  58  86 S8        29.94F
WISC RAPIDS    PTCLDY    65  58  78 S3        29.97F
STEVENS POINT  MOCLDY    61  56  83 S6        29.97F
WAUPACA        LGT RAIN  63  55  75 S3        29.99F
SHAWANO        CLOUDY    64  51  63 S3        29.98F
CLINTONVILLE   CLOUDY    63  50  63 S5        29.98F
$$

WIZ038-039-048-051-250900-
FOX VALLEY

CITY           SKY/WX    TMP DP  RH WIND       PRES   REMARKS
NWS GREEN BAY  CLOUDY    60  48  64 S5        29.99F
APPLETON       CLOUDY    61  46  59 SW9       30.00F
OSHKOSH        MOCLDY    62  47  57 S13       30.00F
FOND DU LAC    MOCLDY    61  46  57 S8        30.01F
$$

WIZ022-050-052-250900-
EAST CENTRAL WISCONSIN

CITY           SKY/WX    TMP DP  RH WIND       PRES   REMARKS
STURGEON BAY   MOCLDY    63  43  48 S10       30.00F
MANITOWOC      CLOUDY    63  46  54 SW8       30.01F
SHEBOYGAN      CLOUDY    57  46  66 SW8       30.02F
$$

LMZ563-521-522-541>543-250900-
LAKESHORE

STATION/POSITION TIME  TEMP    WIND        PRES    VSBY  WAVE
                       AIR SEA DIR/SP/G                  HT/PER
                 (UTC) (F)     (DEG/KT/KT) (MB)    (MI)  (FT/S)
SHEBOYGAN LKSHOR 0800   64     210/ 10/ 12 1016.5F
KEWAUNEE LKSHORE 0800   63     210/  8/ 11 1016.9S
NORTHPORT PIER   0800   62     200/  4/  7 1015.6S
N MID LAKE BUOY  0800   59 53  210/ 10/ 10 1015.3R         2/ 4
CHAMBERS ISLAND  0800   65     190/  4/ 10 1015.6F
MENOMINEE LKSHOR 0800   66     200/  8/ 11 1015.7F
$$


USA.gov is the U.S. government's official web portal to all federal, state and local government web resources and services.